TimeCST,TemperatureF,Dew PointF,Humidity,Sea Level PressureIn,VisibilityMPH,Wind Direction,Wind SpeedMPH,Gust SpeedMPH,PrecipitationIn,Events,Conditions,WindDirDegrees,DateUTC
12:54 AM,21.9,10.0,60,30.08,10.0,NW,12.7,21.9,N/A,,Overcast,310,2012-12-10 06:54:00
1:54 AM,21.9,10.0,60,30.08,10.0,NW,12.7,-,N/A,,Overcast,320,2012-12-10 07:54:00
2:54 AM,21.9,10.9,63,30.07,10.0,WNW,11.5,20.7,N/A,,Overcast,290,2012-12-10 08:54:00
3:54 AM,21.0,10.9,65,30.08,10.0,NW,10.4,-,N/A,,Overcast,320,2012-12-10 09:54:00
4:54 AM,21.0,10.0,63,30.09,10.0,WNW,11.5,19.6,N/A,,Overcast,300,2012-12-10 10:54:00
5:54 AM,21.0,10.0,63,30.08,10.0,NW,16.1,23.0,N/A,,Overcast,310,2012-12-10 11:54:00
6:54 AM,21.2,10.4,63,30.08,10.0,WNW,8.1,-,N/A,,Overcast,290,2012-12-10 12:54:00
7:12 AM,21.2,8.6,58,30.08,10.0,NW,9.2,-,N/A,,Overcast,310,2012-12-10 13:12:00
7:54 AM,19.9,8.1,60,30.13,10.0,WNW,12.7,-,N/A,,Overcast,290,2012-12-10 13:54:00
8:54 AM,21.0,8.1,57,30.14,10.0,WNW,9.2,-,N/A,,Overcast,300,2012-12-10 14:54:00
9:54 AM,21.0,8.1,57,30.13,10.0,West,9.2,-,N/A,,Overcast,280,2012-12-10 15:54:00
10:54 AM,21.9,9.0,58,30.14,10.0,WNW,8.1,-,N/A,,Overcast,290,2012-12-10 16:54:00
11:54 AM,24.1,10.0,55,30.12,10.0,WNW,8.1,-,N/A,,Overcast,290,2012-12-10 17:54:00
12:54 PM,27.0,12.0,53,30.09,10.0,West,8.1,-,N/A,,Overcast,270,2012-12-10 18:54:00
1:25 PM,28.4,14.0,55,30.05,10.0,NW,6.9,-,N/A,,Scattered Clouds,320,2012-12-10 19:25:00
1:54 PM,28.9,14.0,54,30.07,10.0,NW,5.8,-,N/A,,Clear,310,2012-12-10 19:54:00
2:54 PM,30.0,15.1,54,30.05,10.0,WSW,5.8,-,N/A,,Clear,250,2012-12-10 20:54:00
3:54 PM,30.0,10.0,43,30.05,10.0,West,8.1,-,N/A,,Clear,270,2012-12-10 21:54:00
4:54 PM,28.0,10.0,47,30.05,10.0,WSW,5.8,-,N/A,,Clear,240,2012-12-10 22:54:00
5:54 PM,25.0,10.0,53,30.05,10.0,SSW,5.8,-,N/A,,Clear,200,2012-12-10 23:54:00
6:54 PM,26.1,10.0,51,30.05,10.0,SW,3.5,-,N/A,,Clear,230,2012-12-11 00:54:00
7:54 PM,23.0,10.0,58,30.05,10.0,SSW,5.8,-,N/A,,Clear,200,2012-12-11 01:54:00
8:54 PM,24.1,10.9,57,30.06,10.0,SSW,6.9,-,N/A,,Clear,210,2012-12-11 02:54:00
9:54 PM,24.1,10.0,55,30.05,10.0,SSW,5.8,-,N/A,,Clear,210,2012-12-11 03:54:00
10:54 PM,23.0,9.0,55,30.05,10.0,SSW,4.6,-,N/A,,Clear,210,2012-12-11 04:54:00
11:54 PM,23.0,9.0,55,30.05,10.0,SSW,6.9,-,N/A,,Clear,200,2012-12-11 05:54:00